Вернуться в каталог

STARLINK-4734

АктивенСвязьVLEO
NORAD 53790·PAYLOAD·🇺🇸 United States

Запущен Sep 11, 2022 с Cape Canaveral Space Force Station

Loading…

Ближайшие Пролёты (ближайшие 24 часа)

TLE

СвежийSource: CelesTrak SupGP

Эпоха: Sep 15, 2026, 01:56 UTC

1 53790C 22111T   26258.08104167  .00080272  00000+0  81199-3 0  2588
2 53790  53.1569 126.6355 0001310  83.6793 286.2898 15.64609375    14

Отслеживайте STARLINK-4734 в реальном времени с AllMySat

Download on the App Store